Terminal Aerodrome Forecast
Issued by NWS Blacksburg, VA

Current Version | Previous Version | Text Only | Print | Product List | Glossary Off
Versions: 1 2 3 4 5 6 7 8 9 10 11 12 13 14 15 16 17 18 19 20 21 22 23 24 25 26 27 28 29 30 31 32 33 34 35 36 37 38 39 40 41 42 43 44 45 46 47 48 49 50

242
FTUS41 KRNK 250818 AAB
TAFBLF
TAF AMD
KBLF 250818Z 2508/2606 27006KT P6SM BKN015 OVC022
     FM251400 24009KT P6SM BKN035
     FM251700 24012KT P6SM VCTS BKN035CB
     FM260100 28012G22KT P6SM OVC007=

USA.gov is the U.S. government's official web portal to all federal, state and local government web resources and services.